Location: Beadle
(51.4667°N, 109.0000°W)
Time: 05:42:07
(UTC+00:00)

Envisat - Pass Details

Date: 19 January 2022
Orbit: 764 x 765 km, 98.2° (Epoch: 25 May)

Event Time Altitude Azimuth Distance (km) Brightness Sun altitude
Rises 13:35:53 0° 7° (N) 3,245 6.2 -14.3°
Reaches altitude 10° 13:38:29 10° 356° (N) 2,314 5.3 -13.9°
Maximum altitude 13:42:43 27° 300° (WNW) 1,433 3.9 -13.3°
Drops below altitude 10° 13:46:57 10° 243° (WSW) 2,302 5.1 -12.7°
Sets 13:49:31 0° 232° (SW) 3,224 5.9 -12.3°
